Port Edwards, WI

10:59 PM CST on February 26, 2017 (GMT -0600)
Alexander Field South Wood County

Weather History for KISW - March, 2013

Change the Weather History Date:

Saturday, March 9, 2013

  Actual Average Record
Temperature  
Mean Temperature 32 °F -  
Max Temperature 37 °F 39 °F 68 °F (1987)
Min Temperature 28 °F 15 °F -9 °F (1975)
Degree Days  
Heating Degree Days 32    
Moisture  
Dew Point 29 °F    
Average Humidity 82    
Maximum Humidity 96    
Minimum Humidity 70    
Precipitation  
Precipitation 0.26 in - - ()
Sea Level Pressure  
Sea Level Pressure 29.96 in    
Wind  
Wind Speed 7 mph (SE)    
Max Wind Speed 12 mph    
Max Gust Speed 17 mph    
Visibility 5 miles    
Events Rain , Snow    
Averages and records for this station are not official NWS values.
T = Trace of Precipitation, MM = Missing Value Source: NWS Daily Summary

Daily Weather History Graph

Daily Weather History Graph

Search for Another Location

Airport or City:

Trip Planner

Search our weather history database for the weather conditions in past years. The results will help you decide how hot, cold, wet, or windy it might be!

Date:

Astronomy

Mar. 09, 2013 Rise Set
Actual Time 6:22 AM CST 5:58 PM CST
Civil Twilight 5:53 AM CST 6:27 PM CST
Nautical Twilight 5:19 AM CST 7:00 PM CST
Astronomical Twilight 4:45 AM CST 7:34 PM CST
Moon 4:50 AM CST (3/9) 3:57 PM CST (3/9)
Length of Visible Light 12h 34m
Length of Day
11h 36m
Waning Crescent, 5% of the Moon is Illuminated
Mar 9
Waning Crescent
Mar 11
New
Mar 19
First Quarter
Mar 27
Full
Apr 2
Last Quarter

Hourly Weather History & Observations

Time (CST) Temp. Windchill Dew Point Humidity Pressure Visibility Wind Dir Wind Speed Gust Speed Precip Events Conditions
12:54 AM 28.9 °F 22.8 °F 21.9 °F 75% 30.25 in 9.0 mi SSE 5.8 mph - N/A   Clear
1:54 AM 30.0 °F 24.1 °F 21.9 °F 72% 30.22 in 9.0 mi SE 5.8 mph - N/A   Clear
2:54 AM 30.0 °F 25.2 °F 21.9 °F 72% 30.18 in 9.0 mi SE 4.6 mph - N/A   Clear
3:54 AM 30.0 °F 24.1 °F 21.9 °F 72% 30.17 in 9.0 mi ESE 5.8 mph - N/A   Overcast
4:54 AM 30.9 °F 27.5 °F 23.0 °F 72% 30.18 in 9.0 mi SE 3.5 mph - N/A   Overcast
5:54 AM 30.9 °F 26.2 °F 23.0 °F 72% 30.16 in 9.0 mi SE 4.6 mph - 0.00 in   Overcast
6:54 AM 30.9 °F 24.3 °F 24.1 °F 76% 30.15 in 7.0 mi SE 6.9 mph - 0.00 in   Overcast
7:54 AM 32.0 °F 25.6 °F 24.1 °F 73% 30.14 in 7.0 mi SSE 6.9 mph - N/A   Overcast
8:54 AM 32.0 °F 24.8 °F 25.0 °F 75% 30.10 in 2.5 mi SE 8.1 mph - 0.00 in Snow Light Snow
9:54 AM 33.1 °F 24.9 °F 28.0 °F 82% 30.07 in 5.0 mi ESE 10.4 mph - 0.02 in   Haze
10:54 AM 34.0 °F 26.0 °F 28.0 °F 79% 30.04 in 6.0 mi SE 10.4 mph 17.3 mph N/A   Haze
11:54 AM 37.0 °F 30.4 °F 28.9 °F 73% 30.01 in 8.0 mi SSE 9.2 mph - N/A   Overcast
12:54 PM 37.9 °F 32.7 °F 28.9 °F 70% 29.96 in 10.0 mi SSE 6.9 mph - N/A   Overcast
1:36 PM 37.4 °F 30.8 °F 28.4 °F 70% 29.90 in 10.0 mi SE 9.2 mph - N/A   Overcast
1:54 PM 37.9 °F 30.5 °F 28.9 °F 70% 29.93 in 10.0 mi SE 11.5 mph - N/A   Overcast
2:54 PM 37.0 °F 31.6 °F 30.0 °F 76% 29.91 in 9.0 mi SSE 6.9 mph - 0.00 in   Overcast
3:54 PM 36.0 °F 30.3 °F 33.1 °F 89% 29.88 in 3.0 mi SE 6.9 mph - 0.04 in Rain Light Rain
4:33 PM 35.6 °F 29.2 °F 32.0 °F 87% 29.82 in 2.5 mi SE 8.1 mph - 0.03 in Rain Light Rain
4:52 PM 35.6 °F 28.6 °F 32.0 °F 87% 29.82 in 2.5 mi SE 9.2 mph - 0.06 in Rain Rain
4:54 PM 35.1 °F 27.9 °F 32.0 °F 89% 29.85 in 2.5 mi SE 9.2 mph - 0.07 in Rain Rain
5:34 PM 35.6 °F 28.0 °F 32.0 °F 87% 29.81 in 3.0 mi SE 10.4 mph - 0.02 in Rain Light Rain
5:54 PM 35.1 °F 29.3 °F 32.0 °F 89% 29.85 in 3.0 mi SE 6.9 mph - 0.02 in Rain Light Rain
6:54 PM 35.1 °F 31.0 °F 32.0 °F 89% 29.86 in 4.0 mi SE 4.6 mph - 0.03 in Rain Light Rain
7:54 PM 35.1 °F 29.3 °F 32.0 °F 89% 29.84 in 3.0 mi SE 6.9 mph - 0.04 in Rain Light Rain
8:54 PM 35.1 °F 30.1 °F 33.1 °F 92% 29.84 in 3.0 mi SSE 5.8 mph - 0.01 in Rain Light Rain
9:54 PM 36.0 °F 30.3 °F 34.0 °F 93% 29.83 in 4.0 mi SSE 6.9 mph - 0.00 in   Overcast
10:40 PM 35.6 °F 31.7 °F 33.8 °F 93% 29.80 in 2.5 mi South 4.6 mph - 0.01 in Rain Light Rain
10:54 PM 36.0 °F 32.1 °F 34.0 °F 93% 29.83 in 1.8 mi SSE 4.6 mph - 0.02 in Rain Light Rain
11:04 PM 35.6 °F 32.8 °F 33.8 °F 93% 29.79 in 2.0 mi SSE 3.5 mph - 0.00 in Rain Light Rain
11:45 PM 35.6 °F 32.8 °F 33.8 °F 93% 29.78 in 1.8 mi SSE 3.5 mph - 0.01 in Rain Light Rain
11:54 PM 35.1 °F 32.2 °F 34.0 °F 96% 29.80 in 1.8 mi SE 3.5 mph - 0.01 in Rain Light Rain